1491557193.09, -0.0508146012252, -0.0411967354632, -0.0399574572913, 0.597681864969, 0.00302957829805, 0.0327246960862, 0.801059488558
1491557193.12, -0.0531384900593, -0.0426723607717, -0.0438027212981, 0.595737670367, 0.00340879635695, 0.034977767782, 0.802409847879
1491557193.15, -0.0534137058936, -0.0425101246928, -0.0468202696103, 0.595043714296, 0.00337929333775, 0.0377698948266, 0.802798227139
1491557193.18, -0.0553587520771, -0.0443107293239, -0.0500081011561, 0.594085286324, 0.0030025120109, 0.0402751202358, 0.803387560387
1491557193.21, -0.0569176023736, -0.0461683038739, -0.0527295309229, 0.593176385393, 0.00282569187734, 0.0425975768156, 0.803939822205
1491557193.24, -0.0579794412495, -0.0481315162216, -0.0549729421795, 0.592127966061, 0.00278930602572, 0.0446718519657, 0.804599973417
1491557193.27, -0.0549301701056, -0.0693695815188, -0.0365314823945, 0.589032054434, 0.00645878478907, 0.0530939086131, 0.806337745499
1491557193.3, -0.0550999992713, -0.0712370331, -0.0378013758422, 0.586582148298, 0.00826069221188, 0.0538189961165, 0.808057337024
1491557193.33, -0.0549829080316, -0.0727458810586, -0.0384954575933, 0.583345476895, 0.0114561970102, 0.0536656920216, 0.810368313569
1491557193.36, -0.0549129294609, -0.0741620176505, -0.038700520452, 0.57991546093, 0.0153871614458, 0.0530515230529, 0.812801838912
1491557193.39, -0.0555384668836, -0.0761199660059, -0.0386491458695, 0.578427061915, 0.0178401823665, 0.0535174393942, 0.813781141105
1491557193.42, -0.0606882024851, -0.074164509597, -0.041763514331, 0.580101917307, 0.0179742742259, 0.0553356363838, 0.812463327387
1491557193.45, -0.0626531800088, -0.0772311453011, -0.0411754338346, 0.582838446299, 0.0171078919047, 0.058115597104, 0.810326627307
1491557193.48, -0.0645874139211, -0.0804537784838, -0.0403410534741, 0.585766442627, 0.0165517762419, 0.0607287321578, 0.808032013281
1491557193.51, -0.0659608023863, -0.083505325641, -0.0395168289371, 0.587372943167, 0.0173848044109, 0.0623548330013, 0.806723415435
1491557193.54, -0.0659396167495, -0.0833893930755, -0.0357101796591, 0.586416870751, 0.0192832633513, 0.06240572966, 0.807371620977
1491557193.57, -0.0650900162444, -0.0851152493418, -0.0358300277986, 0.584729598415, 0.0211420356977, 0.0615232124779, 0.808615610405
1491557193.6, -0.0643408906947, -0.0854487487897, -0.0354043626867, 0.585609421657, 0.0206903935035, 0.0616849114073, 0.807978022342
1491557193.63, -0.0646258152237, -0.0873560310481, -0.0361533422615, 0.587440936718, 0.0188543777275, 0.0633597554749, 0.806562582628
1491557193.66, -0.0651651214655, -0.0891106922778, -0.0372629943872, 0.588720508119, 0.0172514051774, 0.0649996685219, 0.805534353974
1491557193.69, -0.0659747588797, -0.0905814598307, -0.0402473485866, 0.589837078385, 0.0157759792118, 0.0657843875956, 0.804683635841
1491557193.72, -0.0670959170143, -0.0921854513567, -0.041988891056, 0.591148397686, 0.0135365189442, 0.0680438074977, 0.803573503066
1491557193.75, -0.0681076935396, -0.0927095126469, -0.0446454745737, 0.592235035768, 0.0116975992666, 0.0686715239537, 0.802748435301
1491557193.78, -0.0685834025262, -0.0933732217611, -0.0465034022446, 0.591955794615, 0.0106485938334, 0.0700171725962, 0.802852751264
1491557193.81, -0.0686377378478, -0.0936207403969, -0.0483111579071, 0.590855084395, 0.0102864049102, 0.0707245081073, 0.803605937678
1491557193.84, -0.0685599750881, -0.0937984359629, -0.050114084635, 0.589764277621, 0.00981240068842, 0.0714383823105, 0.804349657281
1491557193.87, -0.0689100230623, -0.0939286649128, -0.0526366401966, 0.588569550983, 0.00901844769791, 0.0713183961806, 0.805244209928
1491557193.9, -0.0687492701353, -0.0940083424943, -0.0544153674907, 0.587451002027, 0.00845745195513, 0.0719340863843, 0.806011959552
1491557193.93, -0.0686451929412, -0.0939632910237, -0.0561482101982, 0.586696074591, 0.00748890304721, 0.0727073637377, 0.806501873308
1491557193.96, -0.0685317063405, -0.0936508899304, -0.0577644341912, 0.585758492818, 0.00668049334446, 0.0732353490278, 0.807142455056
1491557193.99, -0.0686676031264, -0.0924249356302, -0.0599253702829, 0.584183185436, 0.00646104861802, 0.0729549366882, 0.808310483612
1491557194.02, -0.0685073970317, -0.0915934910702, -0.0612763699642, 0.582820517963, 0.00628436986013, 0.0729107263865, 0.809298941377
1491557194.05, -0.0677846002244, -0.0915078957268, -0.061904645028, 0.581549483531, 0.00588978919319, 0.0728939811295, 0.810217240068
1491557194.05, -0.0677846002244, -0.0915078957268, -0.061904645028, 0.581549483531, 0.00588978919319, 0.0728939811295, 0.810217240068
1491557194.08, -0.0675232655824, -0.0903928347342, -0.0627108464278, 0.580149732083, 0.00603787394436, 0.0724801340596, 0.811256101739
1491557194.11, -0.0672216267207, -0.0891329412005, -0.0633130815652, 0.578580013454, 0.00654329778343, 0.0717279605877, 0.812439199544
1491557194.14, -0.067094102544, -0.0879729246721, -0.0638729586189, 0.577705798474, 0.0064908482635, 0.0713339447758, 0.813096149063
1491557194.17, -0.0680296517659, -0.0870156807771, -0.0647255376221, 0.577451394828, 0.00604837362238, 0.0708526740886, 0.813322323782
1491557194.2, -0.0682162687744, -0.0860163050032, -0.0651052183181, 0.577132951017, 0.00568141384364, 0.0706157554322, 0.813571566287
1491557194.23, -0.068896158225, -0.0854165562744, -0.0654499120187, 0.577388900251, 0.00486432359707, 0.0706933005964, 0.813388500948
1491557194.23, -0.068896158225, -0.0854165562744, -0.0654499120187, 0.577388900251, 0.00486432359707, 0.0706933005964, 0.813388500948
1491557194.26, -0.06939357135, -0.0847687306606, -0.0656787089226, 0.577886250488, 0.00403731139155, 0.0708748392114, 0.813023947236
1491557194.29, -0.0696736259875, -0.084033453171, -0.0657319980756, 0.578092180203, 0.00363945826552, 0.0707467102629, 0.812890575981
1491557194.32, -0.0697071549748, -0.083227955031, -0.0655733050753, 0.578327404195, 0.00335717993734, 0.0704474472381, 0.812750453754
1491557194.35, -0.0695512122584, -0.0823672701634, -0.0651406217932, 0.578291210629, 0.00345999336776, 0.0698580016728, 0.812826650497
1491557194.38, -0.0692533968271, -0.0820062225594, -0.0643169030509, 0.578187791587, 0.00367629750289, 0.0691361215092, 0.812960982581
1491557194.41, -0.0689926600569, -0.0813311114744, -0.0633387099614, 0.578237080244, 0.00395580829062, 0.0684015806428, 0.812986749202
1491557194.44, -0.0687121961737, -0.0807670531696, -0.0621965271277, 0.578539541749, 0.00409552865223, 0.0678027459363, 0.812821021456
1491557194.47, -0.0667845423342, -0.0826249402885, -0.0571721373215, 0.57849116751, 0.00400799305111, 0.0675049118961, 0.812880675115
1491557194.5, -0.0666141014192, -0.0823093090957, -0.055860564273, 0.578869524667, 0.00426892473622, 0.066891826263, 0.812660650747
1491557194.53, -0.0665778974139, -0.0822037326536, -0.0544858774716, 0.579410696408, 0.00446091796564, 0.066473687197, 0.812308189057
1491557194.56, -0.0671531855557, -0.0813436134559, -0.0532689615115, 0.580258473982, 0.00462488588215, 0.0663753886812, 0.81170993685
1491557194.59, -0.0672150518737, -0.0814375199515, -0.0518868109823, 0.581188592349, 0.00451955189164, 0.0662171946006, 0.811057751898
1491557194.62, -0.0672350685924, -0.0815918640206, -0.0504848763407, 0.582057398532, 0.00450240136782, 0.0660470838782, 0.810448453579
1491557194.65, -0.067693446411, -0.0813166637749, -0.0493838542243, 0.582790957965, 0.00449705793802, 0.0659682353874, 0.809927569418
1491557194.68, -0.0677044096534, -0.0815128334413, -0.0478841372755, 0.583222346676, 0.00498895768205, 0.0656570464505, 0.809639399295
1491557194.71, -0.0676673293062, -0.0817223063333, -0.0463871996305, 0.583276850433, 0.00584399041312, 0.065197666754, 0.809631538278
1491557194.74, -0.0676153708805, -0.0819690813841, -0.0449832731811, 0.583257703072, 0.00668492953132, 0.0647688352604, 0.809673243663
1491557194.77, -0.0675117849473, -0.0815810299392, -0.0438155989521, 0.583249511669, 0.00740356398383, 0.0644785445507, 0.809696061291
1491557194.8, -0.0676239136402, -0.0819690791598, -0.042714685539, 0.583634872705, 0.00759848913367, 0.0644936659594, 0.809415323167
1491557194.83, -0.0678068730528, -0.0824762286397, -0.0423454410601, 0.584684150091, 0.00707128452458, 0.0651965137654, 0.808606119294
1491557194.83, -0.0678068730528, -0.0824762286397, -0.0423454410601, 0.584684150091, 0.00707128452458, 0.0651965137654, 0.808606119294
1491557194.86, -0.0680117697664, -0.0829387321886, -0.0417496729509, 0.584289634881, 0.0078746085068, 0.0650219647178, 0.80889786575
1491557194.89, -0.0680020729252, -0.0832928879577, -0.0412543172671, 0.583354094749, 0.00922233033747, 0.064494191398, 0.809600795478
1491557194.92, -0.0680294517489, -0.0838648861851, -0.0409437707631, 0.583327911523, 0.00948979494713, 0.0646568866153, 0.809603593398
1491557194.95, -0.067855144849, -0.0842705226978, -0.0405757779988, 0.583616579966, 0.00944459706275, 0.0651181378818, 0.809359076859
1491557194.95, -0.067855144849, -0.0842705226978, -0.0405757779988, 0.583616579966, 0.00944459706275, 0.0651181378818, 0.809359076859
1491557194.98, -0.0677690028743, -0.084830699907, -0.0403067700233, 0.583264815799, 0.010091547714, 0.065096967406, 0.809606509454
1491557195.01, -0.0677158718003, -0.0854021690647, -0.0400552870422, 0.58272113728, 0.0109591550591, 0.0649292808814, 0.810000099735
1491557195.04, -0.0677961403678, -0.0860835643114, -0.0398718153655, 0.582742205829, 0.0112806955955, 0.065077689009, 0.809968617816
1491557195.07, -0.0675352503803, -0.0865360920025, -0.0393372226571, 0.583199033706, 0.0112808305535, 0.0655334490701, 0.809602987271
1491557195.1, -0.0677556655143, -0.0872695236726, -0.0391868784033, 0.583772864795, 0.0111347252325, 0.0660209831757, 0.809151710128
1491557195.13, -0.067469221492, -0.0874511809293, -0.0383916060398, 0.584333006597, 0.011056560361, 0.066439835271, 0.808714064526
1491557195.13, -0.067469221492, -0.0874511809293, -0.0383916060398, 0.584333006597, 0.011056560361, 0.066439835271, 0.808714064526
1491557195.16, -0.0675480742008, -0.0879773741065, -0.0381166959848, 0.584861453133, 0.0110391391984, 0.0667016126038, 0.808310653722
1491557195.19, -0.067557892588, -0.0884155325224, -0.0377997662277, 0.585355006628, 0.0110618405238, 0.0668898874744, 0.807937432511
1491557195.22, -0.0674934225476, -0.0887491607731, -0.0374284154165, 0.585686699053, 0.0112588467643, 0.0668906888673, 0.807694227208
1491557195.25, -0.0674302794385, -0.089070163781, -0.0370262549381, 0.586139292585, 0.0113147668842, 0.0669320023098, 0.807361636942
1491557195.28, -0.0666787493681, -0.0890551595781, -0.0360045611668, 0.587100489812, 0.0109527421914, 0.0672727603448, 0.806639589914
1491557195.31, -0.0665205139283, -0.0892938618261, -0.035407013346, 0.587945559006, 0.0106142771373, 0.0675087263708, 0.806008640543
1491557195.34, -0.0661056219912, -0.0885861433999, -0.0346674872777, 0.588288316537, 0.0108499815593, 0.0673387919891, 0.805769583454
1491557195.34, -0.0661056219912, -0.0885861433999, -0.0346674872777, 0.588288316537, 0.0108499815593, 0.0673387919891, 0.805769583454
1491557195.37, -0.0656814736552, -0.0884072346524, -0.033768123903, 0.588093325986, 0.011580390183, 0.0668144620671, 0.8059453841
1491557195.4, -0.0655769627755, -0.0885002478328, -0.0330194572613, 0.588576414864, 0.0115276835234, 0.0668232405149, 0.805592683001
1491557195.43, -0.0657977019385, -0.0888845678751, -0.0326023408905, 0.589543469726, 0.0108270961836, 0.0674081170887, 0.804846207074
1491557195.46, -0.065687496557, -0.0889514039895, -0.0321827650548, 0.589366187364, 0.0112484582736, 0.0671621439219, 0.804990817216
1491557195.49, -0.0650801303132, -0.0890434191555, -0.031749130659, 0.588928714609, 0.0118922789132, 0.0666298997119, 0.805345887973
1491557195.52, -0.0646392570294, -0.0890323631828, -0.0312905013147, 0.588759943478, 0.0121613283079, 0.0663545074176, 0.80548799519
1491557195.55, -0.0641173486484, -0.0889546803503, -0.0308253859535, 0.588509877447, 0.0124577658248, 0.0660195603825, 0.805693704745
1491557195.58, -0.062523026822, -0.0896887428821, -0.0296570612117, 0.587696832806, 0.0132131145556, 0.0653822450402, 0.806326861978
1491557195.61, -0.061955119242, -0.0894495865178, -0.0292923489364, 0.586917351501, 0.0140340356689, 0.0647165926296, 0.806934217262
1491557195.64, -0.0615511185348, -0.089313885064, -0.0290850578203, 0.586612221941, 0.0143113524947, 0.0643521577202, 0.807180330568
1491557195.67, -0.0616596586839, -0.08952466593, -0.029358765079, 0.586838802993, 0.0140372625299, 0.064299076439, 0.807024660919
1491557195.7, -0.0615102968125, -0.089605752744, -0.0294834969487, 0.587202729666, 0.0136157550597, 0.0643920350693, 0.806759711009
1491557195.73, -0.0613381518102, -0.0897014225235, -0.0297015702058, 0.587444310357, 0.0133837291889, 0.0643779131172, 0.806588831019
1491557195.76, -0.0612447982146, -0.0901557172942, -0.0298159292459, 0.587700715134, 0.0130576054909, 0.0643961193677, 0.806405920229
1491557195.79, -0.0612470001769, -0.090511756407, -0.0301779563094, 0.588405540961, 0.0122993767532, 0.0647072467832, 0.805878785495
1491557195.82, -0.0613206960924, -0.0909566941273, -0.0305012362645, 0.589266081036, 0.0114095380562, 0.0651251337944, 0.805229175534
1491557195.85, -0.061329477607, -0.0913305835397, -0.0307631174115, 0.589811731041, 0.0108416020487, 0.065315819503, 0.804821983618
1491557195.88, -0.0612300625925, -0.0916286796076, -0.0306586641146, 0.590099260136, 0.010521759806, 0.0653334851392, 0.804614001542
1491557195.88, -0.0612300625925, -0.0916286796076, -0.0306586641146, 0.590099260136, 0.010521759806, 0.0653334851392, 0.804614001542
1491557195.91, -0.0610918538416, -0.0918156247955, -0.030751706135, 0.590066199015, 0.0104820061919, 0.0651764648598, 0.804651500188
1491557195.94, -0.0609733886039, -0.0919310526199, -0.0308191851988, 0.589862424957, 0.010620117801, 0.0649470576873, 0.804817626807
1491557195.97, -0.0609613431557, -0.0920530265617, -0.0309241850761, 0.589713009355, 0.0106208678535, 0.0648179995317, 0.804937507326
1491557196.0, -0.0610143325599, -0.0921247768014, -0.0310743428275, 0.589488951549, 0.0106514106677, 0.0646994676355, 0.805110739178
1491557196.03, -0.0607601711159, -0.0921410133155, -0.0311324957777, 0.589099873282, 0.0108564957882, 0.0644872998461, 0.805409749107
1491557196.06, -0.0605788888685, -0.0924796710306, -0.031606315614, 0.588825952379, 0.0107879026417, 0.0643834950753, 0.805619255309
1491557196.06, -0.0605788888685, -0.0924796710306, -0.031606315614, 0.588825952379, 0.0107879026417, 0.0643834950753, 0.805619255309
1491557196.09, -0.0608710550541, -0.0925967251753, -0.0321646636868, 0.588867459784, 0.0103803617845, 0.0646316907855, 0.80557439597
1491557196.12, -0.0612107155464, -0.0927569307159, -0.0328815683349, 0.58908951632, 0.00977406300901, 0.0650188956355, 0.805388448306
1491557196.15, -0.0615215174357, -0.0928794626832, -0.0337334546205, 0.589316215411, 0.00911315969145, 0.065418741231, 0.805197948874
1491557196.18, -0.0618761760294, -0.0932334923253, -0.0344849022652, 0.589403689839, 0.00856442885939, 0.0656885933987, 0.805117972511
1491557196.21, -0.0620233512283, -0.0931831493351, -0.035397168098, 0.589279550537, 0.00822126292207, 0.0658308591866, 0.805200794916
1491557196.24, -0.0619619534921, -0.0933896026407, -0.0362883521721, 0.589198612097, 0.00791030995639, 0.0659477693139, 0.805253571381
1491557196.24, -0.0619619534921, -0.0933896026407, -0.0362883521721, 0.589198612097, 0.00791030995639, 0.0659477693139, 0.805253571381
1491557196.27, -0.0621745703125, -0.0934524621338, -0.0371476609401, 0.589428654227, 0.00729597641633, 0.0663152424681, 0.805060816908
1491557196.3, -0.0624684663747, -0.0935576529871, -0.03791780339, 0.589739185707, 0.00665519514389, 0.0667367649476, 0.804804078906
1491557196.33, -0.0628147225563, -0.0936853167959, -0.038559398492, 0.58996488624, 0.00611397027871, 0.0671475417365, 0.804608762076
1491557196.36, -0.063134990556, -0.0937792753752, -0.0390642236103, 0.589939412369, 0.00584418715422, 0.0673779433648, 0.804610183852
1491557196.39, -0.0633427553011, -0.0944402930793, -0.0390745792727, 0.58974271073, 0.00579030063692, 0.0674601406728, 0.804747871684
1491557196.42, -0.0635697079644, -0.0945612510691, -0.03932039721, 0.589635099573, 0.00569463839326, 0.0676088744405, 0.804814923161
1491557196.45, -0.0638080088638, -0.0946993321084, -0.0394490840442, 0.589529107471, 0.00564883357563, 0.067747631966, 0.804881221353
1491557196.48, -0.0642277273758, -0.0952647319578, -0.0393255973394, 0.589161342998, 0.00591210081995, 0.0676811913305, 0.805154156246
1491557196.51, -0.0644575274289, -0.0953484884756, -0.0391509586861, 0.588725451608, 0.00632378720224, 0.0675629033931, 0.805479736821
1491557196.54, -0.0647469158653, -0.0954861286066, -0.0389366465882, 0.588607204751, 0.00647222285416, 0.0676033589795, 0.805561577225
1491557196.57, -0.0652676264144, -0.0958858901391, -0.0390760952971, 0.588627016077, 0.00656830144665, 0.0676391707864, 0.805543317231
1491557196.6, -0.0655147826086, -0.0960160848128, -0.038716671941, 0.588557108348, 0.00686809726644, 0.0675692529132, 0.805597762853
1491557196.63, -0.0657409459727, -0.096157028019, -0.0382918486896, 0.588586327194, 0.00715018002124, 0.0675025845722, 0.80557955004
1491557196.65, -0.0659221793403, -0.0963709952901, -0.037776838872, 0.588822491852, 0.00726773349105, 0.0675454945496, 0.805402296561
1491557196.68, -0.0656664395443, -0.0971646575723, -0.0365996074706, 0.589096444784, 0.00721494247625, 0.0677373866552, 0.805186295088
1491557196.71, -0.0657491017632, -0.0976258380644, -0.0356941670455, 0.589365965499, 0.00753260668358, 0.0676966054679, 0.804989557793
1491557196.74, -0.065866197366, -0.0982565624238, -0.03457836195, 0.589547909124, 0.00807456462951, 0.0676305860264, 0.804856613371
1491557196.77, -0.0667107735434, -0.0989474298134, -0.0334929461087, 0.589834399778, 0.00867838498933, 0.0676629499425, 0.804637677267
1491557196.8, -0.0668766078952, -0.0998180779352, -0.0319950763903, 0.589843655623, 0.00963011129552, 0.0675287250393, 0.804631340535
1491557196.83, -0.0669103665107, -0.100696231511, -0.0303985969398, 0.589524602774, 0.0109812208206, 0.0671885376836, 0.804876298519
1491557196.86, -0.0673050174739, -0.101125292323, -0.0294472011975, 0.589427972501, 0.01220361006, 0.0670426060394, 0.804941629008
1491557196.89, -0.0672335223595, -0.102439943504, -0.0277800759939, 0.589522841904, 0.0131904464968, 0.0670579284199, 0.804855307015
1491557196.92, -0.0670464769565, -0.104054338962, -0.0259705750312, 0.589518978685, 0.0143778370186, 0.0670716240315, 0.804836659716
1491557196.95, -0.0671066641804, -0.106498017124, -0.0240253570253, 0.58936074684, 0.0159131579011, 0.0669939010175, 0.804930120393
1491557196.95, -0.0671066641804, -0.106498017124, -0.0240253570253, 0.58936074684, 0.0159131579011, 0.0669939010175, 0.804930120393
1491557196.98, -0.0669181616217, -0.109130320686, -0.0218321761763, 0.589096202057, 0.0177524309218, 0.0670458550284, 0.805080970612
1491557197.01, -0.0668356740654, -0.112493518783, -0.0194975237507, 0.588901304965, 0.0197316369077, 0.0673637914612, 0.805150939337
1491557197.04, -0.0674216201552, -0.116468915131, -0.0170942441062, 0.588883631343, 0.0218456525726, 0.0680575343071, 0.805050935173
1491557197.04, -0.0674216201552, -0.116468915131, -0.0170942441062, 0.588883631343, 0.0218456525726, 0.0680575343071, 0.805050935173
1491557197.07, -0.0674753726677, -0.121254787854, -0.0146406258673, 0.588624260381, 0.0244043898785, 0.0688952830448, 0.805095861261
1491557197.1, -0.0674787951593, -0.126643482693, -0.0122798540761, 0.587839312702, 0.0276162267941, 0.0696933607734, 0.80549681683
1491557197.13, -0.0675041791306, -0.132728067985, -0.0101672291539, 0.587132706331, 0.0308069399402, 0.0708445288068, 0.805795985561
1491557197.16, -0.0678740126722, -0.139497175569, -0.00839229287191, 0.58684049021, 0.0336454064232, 0.0725281889592, 0.805745547604
1491557197.16, -0.0678740126722, -0.139497175569, -0.00839229287191, 0.58684049021, 0.0336454064232, 0.0725281889592, 0.805745547604
1491557197.19, -0.0680152642928, -0.14706382736, -0.00683604840185, 0.586842944548, 0.0360852470217, 0.074790268224, 0.805431331127
1491557197.22, -0.0679136452373, -0.155121856173, -0.00549146897668, 0.586655208568, 0.0386663622936, 0.0771936580522, 0.805221533395
1491557197.25, -0.067265319651, -0.163656555972, -0.00404471192679, 0.586402562312, 0.0415439608687, 0.079646354453, 0.80502334901
1491557197.28, -0.0664750155295, -0.172371383099, -0.00304573790007, 0.586051969822, 0.044099992717, 0.0822474255638, 0.804881134266
1491557197.31, -0.0653769442929, -0.181354079845, -0.00213166477682, 0.58574144262, 0.0465583363062, 0.0849820476747, 0.804684618525
1491557197.34, -0.063556390904, -0.190305284084, -0.000516618061389, 0.585259962398, 0.0495643233967, 0.0877132073124, 0.804562332901
1491557197.34, -0.063556390904, -0.190305284084, -0.000516618061389, 0.585259962398, 0.0495643233967, 0.0877132073124, 0.804562332901
1491557197.37, -0.0618494405533, -0.19940064572, 0.000372987491671, 0.584128625295, 0.0526653335658, 0.0900845276878, 0.804925393824
1491557197.4, -0.0600524629046, -0.208514095317, 0.00121989356495, 0.583043708698, 0.0557386315487, 0.0925055920327, 0.805230373336
1491557197.43, -0.0583184391115, -0.217581325762, 0.00203583697575, 0.58195419063, 0.0587779888724, 0.094999175017, 0.805512026464
1491557197.46, -0.055900193783, -0.226449488881, 0.00312395088438, 0.580834917068, 0.0619195829131, 0.0976281885301, 0.805770129237
1491557197.49, -0.0542193701244, -0.23519012779, 0.00389114164078, 0.579783789006, 0.0648258869786, 0.10016321467, 0.80598740239
1491557197.52, -0.0517574466024, -0.24361133966, 0.00510622482643, 0.579256392406, 0.0670037954906, 0.102998964059, 0.80583108444
1491557197.52, -0.0517574466024, -0.24361133966, 0.00510622482643, 0.579256392406, 0.0670037954906, 0.102998964059, 0.80583108444
1491557197.55, -0.0499297445811, -0.251527121079, 0.00554423225304, 0.579382253758, 0.0684274289453, 0.105907817067, 0.805243705521
1491557197.58, -0.0479818817617, -0.258695912734, 0.00584532163529, 0.579350161193, 0.0698337687002, 0.108564308377, 0.804792163494
1491557197.61, -0.0459882109092, -0.265269952215, 0.0060851836523, 0.579381153532, 0.0710714122397, 0.111106995434, 0.804314347043
1491557197.64, -0.0439686379714, -0.271291830592, 0.00635110137186, 0.579202822596, 0.0724605922005, 0.113382741591, 0.80400118581
1491557197.67, -0.0405998900783, -0.276614134636, 0.00778633762394, 0.578169021206, 0.0746566068695, 0.115392613607, 0.804258365634
1491557197.7, -0.0389282759029, -0.28177798361, 0.00833255235552, 0.576629948159, 0.0773837689161, 0.116774865995, 0.804905762103
1491557197.73, -0.0376984988441, -0.2868340343, 0.00894103320502, 0.57555178731, 0.0797020278537, 0.118354653174, 0.805220406443
1491557197.76, -0.0384910509824, -0.289367464128, 0.00768492837919, 0.574781632344, 0.0813933445273, 0.120193572989, 0.80532894124
1491557197.79, -0.0378224050763, -0.293658643945, 0.00819054641013, 0.574283723199, 0.0830800210838, 0.121759394239, 0.805276701066
1491557197.82, -0.0373806576342, -0.297630068525, 0.00858423811581, 0.57475751344, 0.0837997852275, 0.123646302521, 0.804576278927
1491557197.85, -0.0364038233033, -0.300915475603, 0.00920140928875, 0.575723703915, 0.0838175397074, 0.125659149629, 0.803571163558
1491557197.88, -0.0356681295866, -0.303340416379, 0.0096314597615, 0.575939095516, 0.0845127842216, 0.126726251378, 0.803176322342
1491557197.91, -0.0347680926924, -0.305129613626, 0.0101414194928, 0.575814650299, 0.0854196685595, 0.127339493725, 0.803072613194
1491557197.94, -0.0331952227191, -0.30653778281, 0.0114545192824, 0.575727308806, 0.0859549307563, 0.128029275961, 0.802968442886
1491557197.97, -0.0320819376293, -0.307507610536, 0.0122630239757, 0.575779741381, 0.0866445154131, 0.128312916096, 0.802811442947
1491557198.0, -0.0308908212775, -0.308053237966, 0.0132293952777, 0.575454107245, 0.0876571672276, 0.128218826505, 0.8029500134
1491557198.03, -0.029789814073, -0.308349725579, 0.0142825013784, 0.575293376292, 0.0885987962128, 0.128101609539, 0.802980549041